Location: *
(47.6569°N, 7.4256°E)
Time: 07:17:51
(UTC+00:00)

CSL-04 Debris - Pass Details

Date: 14 December 2019
Orbit: 827 x 849 km, 99.0° (Epoch: 20 January)

Event Time Altitude Azimuth Distance (km) Brightness Sun altitude
Rises 17:18:01 0° 145° (SE) 3,386 7.2 -15.8°
Reaches altitude 10° 17:20:26 10° 140° (SE) 2,453 6.4 -16.2°
Maximum altitude 17:25:38 48° 67° (ENE) 1,089 4.3 -17.1°
Drops below altitude 10° 17:30:49 10° 355° (N) 2,454 6.5 -17.9°
Sets 17:33:15 0° 350° (N) 3,390 7.3 -18.3°
